Regional Weather Roundup
Issued by NWS

Home | Current Version | Previous Version | Graphics & Text | Print | Product List | Glossary On
Versions: 1 2 3 4 5 6 7 8 9 10 11 12 13 14 15 16 17 18 19 20 21 22 23 24 25 26 27 28 29 30 31 32 33 34 35 36 37 38 39 40 41 42 43 44 45 46 47 48 49 50
000
ASUS43 KFSD 241302
RWRSD

WEATHER ROUNDUP FOR SOUTH DAKOTA
NATIONAL WEATHER SERVICE SIOUX FALLS SD
800 AM CDT SAT SEP 24 2016

NOTE: "FAIR" INDICATES FEW OR NO CLOUDS BELOW 12,000 FEET WITH NO
SIGNIFICANT WEATHER AND/OR OBSTRUCTIONS TO VISIBILITY.


SDZ001>005-009-010-012>017-241400-
NORTHWEST AND NORTH CENTRAL SOUTH DAKOTA

CITY           SKY/WX    TMP DP  RH WIND       PRES   REMARKS
BUFFALO          N/A     56  56 100 NE17      29.64F
FAITH            N/A     60  60 100 S10       29.72S
MOBRIDGE       PTCLDY    69  61  75 S18       29.72R
$$

SDZ012>016-024>037-041>051-057-063-072>074-241400-
SOUTHWEST AND SOUTH CENTRAL SOUTH DAKOTA

CITY           SKY/WX    TMP DP  RH WIND       PRES   REMARKS
RAPID CTY ARPT PTCLDY    54  48  80 W12       29.77S
PIERRE         PTCLDY    62  55  77 S13       29.75S
CUSTER         MOCLDY    42  39  89 W13G20    29.85F
ELLSWORTH AFB  CLOUDY    55  52  88 W9        29.77
PHILIP         MOCLDY    57  52  83 SW15G23   29.77S
PINE RIDGE     CLEAR     48  44  86 W12       29.86R
WINNER         CLOUDY    63  53  70 W12       29.83R
$$

SDZ004>011-016>023-039-040-241400-
NORTHEAST SOUTH DAKOTA

CITY           SKY/WX    TMP DP  RH WIND       PRES   REMARKS
ABERDEEN       MOCLDY    70  63  78 SE16G26   29.80F
WATERTOWN      PTCLDY    68  64  87 SE15G23   29.90R
SISSETON         N/A     69  66  90 S15G24    29.89F
$$

SDZ017-020-022-023-036>040-048>070-241400-
SOUTHEAST SOUTH DAKOTA

CITY           SKY/WX    TMP DP  RH WIND       PRES   REMARKS
SIOUX FALLS    PTCLDY    69  65  86 SE13      29.93S
HURON          CLEAR     69  63  81 SE16G28   29.81F
CHAMBERLAIN    CLOUDY    71  66  84 S14       29.80R
MITCHELL       PTCLDY    69  64  84 SE17G24   29.83F
YANKTON        PTCLDY    70  64  83 SE15G22   29.87R
$$

ABBREVIATIONS USED IN REMARKS
   TC - TEMPERATURE IN CELSIUS
  WCI - WIND CHILL INDEX
   HX - HEAT INDEX
  VSB - VISIBILITY





USA.gov is the U.S. government's official web portal to all federal, state and local government web resources and services.